GFSMA_sfc_temp_075.txt.gz
Temp
66 65 63 63 63 63 63 62 62 63 63 63 65 65 65 64 63 62 61 67 70 72 72 72 71 70 70 69 68 68 67 67 67 66 66 66 66 66 66 67 67 67 67
68 66 64 64 64 65 64 65 64 64 63 64 65 65 64 64 63 61 60 63 68 70 72 72 71 71 70 69 68 67 67 67 66 66 66 65 65 65 65 66 66 66 67
68 67 65 65 66 66 65 64 64 64 63 65 64 64 63 63 63 61 60 60 64 67 70 72 71 71 70 70 69 67 67 66 66 65 65 65 64 64 65 65 65 65 66
69 67 66 66 67 66 65 64 63 62 62 62 61 61 61 61 62 61 60 60 60 63 66 70 70 71 70 70 70 68 67 66 65 65 64 64 64 64 64 65 65 65 65
70 67 66 66 66 65 64 64 62 62 60 59 60 60 59 59 60 63 59 59 58 59 59 65 67 67 69 70 70 69 67 66 65 65 64 64 64 64 64 64 65 65 66
70 67 66 66 66 64 63 62 62 60 60 60 64 62 57 57 58 58 59 61 60 59 58 58 58 59 65 68 69 69 67 66 65 64 64 64 64 64 64 64 65 65 66
72 69 68 66 65 65 66 63 62 61 58 58 57 54 54 55 56 57 58 57 58 59 57 57 56 55 59 65 67 68 67 66 64 64 64 63 63 63 63 63 64 64 65
68 71 68 68 65 63 62 63 62 59 58 58 55 51 50 53 54 57 56 58 57 57 57 57 57 56 55 54 56 65 65 65 64 64 63 63 62 62 63 63 63 64 64
66 66 65 65 66 65 63 63 63 60 60 57 58 55 47 48 49 52 56 56 56 54 56 58 57 56 54 52 56 58 61 62 63 63 63 62 61 61 62 62 63 63 63
65 65 64 64 62 62 61 61 63 62 58 57 55 59 55 53 49 48 51 52 54 54 54 54 56 54 52 51 53 54 58 59 60 61 61 61 61 61 61 62 62 62 62
65 65 64 63 63 62 62 61 60 60 60 59 57 54 54 53 52 48 46 48 52 53 53 53 54 53 53 50 50 54 57 58 58 58 59 60 60 60 60 61 61 61 60
62 63 63 65 64 63 63 63 63 61 62 62 60 57 54 53 54 49 46 45 47 47 47 47 49 50 48 48 52 54 55 54 54 54 55 55 56 58 59 59 59 59 59
60 62 63 62 62 62 64 63 62 61 60 60 60 58 58 56 54 54 50 46 44 42 42 40 41 42 44 43 44 45 46 46 46 49 53 55 56 56 54 55 56 57 57
58 59 59 60 62 62 62 61 60 60 60 59 58 56 55 54 52 52 50 46 40 39 40 39 40 40 41 41 43 44 42 46 46 47 50 53 54 54 53 54 54 54 54
57 55 56 58 58 58 58 58 57 57 57 55 53 52 48 46 47 47 47 47 48 38 37 38 38 40 40 40 41 41 40 42 44 47 49 51 51 52 52 52 52 52 52
51 52 52 52 51 52 54 54 53 52 51 48 47 46 44 43 43 43 44 45 45 42 39 38 36 36 38 40 40 40 40 42 46 48 49 50 51 51 51 51 51 50 51
47 48 49 49 49 51 50 49 48 47 45 44 43 42 41 42 41 41 41 41 40 40 38 35 36 36 36 36 40 41 41 41 42 46 48 49 50 50 50 50 50 50 50
44 44 45 44 43 43 43 46 45 45 43 41 41 40 40 41 39 39 39 38 37 37 38 34 34 34 35 37 38 38 41 44 42 45 47 48 49 49 49 49 49 49 49
41 41 42 41 40 41 40 40 42 42 41 41 40 39 39 38 36 36 35 35 35 36 36 35 33 36 36 37 36 38 38 35 40 45 47 47 46 47 47 48 48 48 48
39 39 39 39 39 39 39 39 38 37 38 38 38 38 37 36 35 35 35 34 35 33 33 33 35 34 35 37 36 32 31 34 33 40 41 42 44 44 45 46 46 45 45
39 40 40 40 39 40 39 36 37 36 36 35 36 37 37 39 40 39 36 34 34 33 33 33 33 33 32 33 31 32 30 30 31 32 31 31 32 33 34 40 41 43 44
38 39 40 40 40 41 43 41 36 34 35 34 33 33 34 35 37 39 38 38 37 34 33 31 29 29 30 29 29 28 27 24 23 31 29 29 32 31 31 31 40 44 44
35 35 37 38 39 40 42 41 38 31 30 30 31 32 34 36 34 33 36 39 39 40 39 32 28 28 28 29 26 22 27 23 24 29 28 27 29 28 30 36 40 42 43
33 33 33 34 35 39 41 40 37 32 31 32 31 30 29 29 31 34 34 32 33 33 34 36 31 30 30 31 30 28 27 27 27 28 28 20 26 27 29 31 39 41 42
33 33 32 30 30 33 40 39 33 28 28 28 30 30 31 31 39 40 31 28 28 30 38 41 40 40 41 41 39 27 22 20 20 25 27 25 24 26 28 27 30 38 39
32 30 27 29 37 30 42 41 34 30 27 29 29 30 38 34 38 38 29 26 25 26 27 29 29 31 32 31 39 30 24 14 16 17 26 24 22 25 23 25 26 31 28

GFSMA_sfc_temp_078.txt.gz
Temp
61 61 62 62 62 62 62 61 62 61 61 61 62 62 62 62 61 61 62 66 70 72 73 72 71 71 70 70 69 68 68 68 67 67 67 67 67 67 67 67 67 67 68
65 63 62 62 61 62 62 61 61 61 61 61 62 62 62 61 61 60 60 63 68 70 72 72 72 71 71 70 69 68 68 67 67 66 66 66 66 66 66 66 66 66 67
65 65 64 61 62 62 62 61 61 61 61 62 61 62 61 60 60 60 59 61 64 67 70 72 72 71 71 70 69 68 67 67 66 66 66 65 65 65 65 65 65 66 66
68 65 64 63 63 62 62 61 61 60 59 59 60 60 60 60 60 59 59 59 60 62 66 70 71 71 71 71 70 69 68 67 66 66 65 65 65 65 65 65 65 65 65
68 67 65 64 64 63 62 63 60 60 58 58 59 59 58 58 59 61 58 58 59 59 59 65 67 68 69 70 71 70 69 67 66 66 65 65 64 64 64 64 65 65 65
68 67 64 64 64 63 62 60 60 59 59 59 62 60 57 56 56 56 57 59 57 58 59 59 60 61 66 69 70 70 69 67 66 65 65 65 64 64 64 64 65 65 65
68 67 65 64 63 65 66 62 60 60 57 57 56 54 54 54 55 54 55 55 57 59 59 60 59 57 61 66 68 69 69 68 66 65 65 64 64 64 64 64 64 64 64
66 67 65 65 64 62 61 61 61 58 58 56 56 52 54 53 54 56 54 56 55 56 57 59 58 57 57 57 59 66 68 68 67 65 65 64 64 63 63 63 63 64 64
65 65 64 63 62 63 63 62 61 60 61 56 55 55 48 49 48 52 52 53 53 52 53 55 55 56 56 56 58 60 63 65 65 65 64 63 63 62 63 63 63 63 63
64 65 64 63 62 61 61 61 62 61 57 57 55 58 53 52 50 48 49 51 54 55 54 53 54 54 54 52 55 56 59 59 62 63 63 62 62 62 63 62 63 63 63
64 64 64 62 62 61 60 60 61 60 61 61 56 53 52 53 53 51 52 47 49 50 52 52 51 49 49 47 49 55 58 56 54 55 55 57 57 58 60 62 62 62 62
62 63 62 62 62 62 61 61 60 61 60 61 61 59 57 54 54 50 48 47 48 46 45 45 46 46 46 47 49 50 53 54 52 52 52 53 53 54 56 57 58 59 60
59 62 61 61 60 60 62 62 62 61 60 59 60 58 58 58 55 54 53 47 46 44 44 42 42 43 46 45 48 49 50 50 50 50 52 54 55 54 54 56 57 57 58
57 57 59 59 60 62 62 61 60 59 59 59 59 59 58 56 53 53 51 49 42 41 41 41 41 41 42 44 46 48 46 48 48 50 52 52 52 52 53 54 55 55 55
55 54 54 55 55 56 57 57 55 53 55 52 50 49 48 47 47 48 48 48 48 41 39 38 38 40 41 42 44 43 41 45 47 47 49 49 50 51 52 53 53 53 53
50 50 50 50 49 51 51 50 47 49 49 46 46 46 44 44 44 44 45 45 45 44 41 39 38 37 39 41 42 40 41 43 45 47 49 49 49 50 51 51 51 51 51
45 46 47 46 45 45 48 49 48 47 45 44 43 42 42 42 41 41 41 41 41 41 37 35 36 37 36 38 40 40 41 41 42 45 47 49 50 50 50 50 50 50 50
42 43 43 42 41 41 40 45 45 45 44 42 42 41 40 42 39 39 39 37 37 37 38 34 35 35 36 37 38 38 41 44 42 45 47 48 49 49 49 49 49 49 49
39 40 40 39 39 39 38 38 38 37 40 40 39 39 39 39 37 36 36 35 35 37 36 36 32 36 36 37 36 38 38 35 39 43 46 46 46 46 47 47 48 48 48
38 38 38 37 37 37 37 36 36 35 36 35 36 37 37 37 36 35 35 35 36 35 35 34 33 33 34 35 35 32 30 32 32 38 40 42 43 44 44 45 45 45 45
38 38 37 37 37 38 38 35 36 36 36 36 36 37 37 40 41 39 34 34 34 34 33 33 33 33 28 32 29 28 28 27 28 29 30 31 31 31 32 38 40 42 43
39 40 41 38 40 42 42 41 36 35 34 33 33 34 35 34 38 41 41 40 38 33 28 29 27 27 28 28 28 27 26 22 22 29 28 29 29 29 30 30 39 42 44
36 36 37 38 39 40 42 41 38 29 28 31 30 26 31 36 35 33 37 39 38 41 38 30 27 26 26 27 24 20 25 20 22 28 27 25 28 28 30 34 39 40 42
34 34 34 34 35 39 41 40 37 29 27 26 25 26 28 28 31 32 31 30 30 30 32 34 29 28 28 28 28 26 25 26 26 28 27 18 25 26 29 31 37 40 41
33 33 33 31 30 32 40 39 32 27 28 27 29 29 30 29 39 39 30 28 28 29 37 40 39 40 40 41 37 27 22 20 20 25 27 25 24 24 26 26 29 38 40
27 28 27 28 36 30 41 39 33 30 27 28 29 30 39 33 38 38 29 26 25 26 26 28 29 30 31 31 37 29 24 14 15 16 25 27 26 24 20 24 26 28 29

GFSMA_sfc_temp_081.txt.gz
Temp
59 61 61 61 62 62 61 61 61 61 60 60 60 60 60 60 60 60 61 65 69 73 73 72 72 71 71 70 69 69 68 68 68 68 67 67 67 67 67 67 67 68 68
61 61 61 61 61 61 61 61 60 60 60 59 60 60 60 60 60 59 60 62 67 70 72 73 72 72 71 70 69 68 68 68 67 67 66 66 66 66 66 66 66 67 67
62 62 61 60 61 61 61 60 60 60 59 60 59 60 60 59 59 59 59 60 63 66 70 73 73 72 71 71 70 69 68 68 67 66 66 65 65 65 65 65 65 66 66
64 62 62 61 62 60 60 60 59 58 58 58 58 59 59 59 58 58 58 58 60 61 65 70 71 72 72 71 71 70 69 67 67 66 66 65 65 65 65 65 65 65 66
66 64 63 63 61 60 59 60 58 58 57 57 58 58 57 57 58 60 57 57 59 60 59 64 67 68 69 71 71 71 70 68 67 66 66 65 65 65 65 65 65 65 66
67 65 63 62 61 60 59 58 59 57 58 57 60 59 57 56 55 55 56 58 56 58 58 58 59 60 66 69 70 71 71 69 67 66 66 65 65 65 65 65 65 65 65
67 65 65 62 62 62 62 61 59 58 56 56 56 54 54 55 54 54 54 54 55 57 56 56 56 57 61 66 68 70 71 70 68 66 66 65 65 65 65 65 64 65 65
65 65 64 63 62 62 61 60 60 57 57 55 56 55 55 58 53 55 53 55 53 54 55 56 55 56 56 59 60 66 67 70 68 65 65 65 65 64 64 64 64 64 65
64 64 63 62 61 61 61 61 60 59 59 55 55 58 52 51 48 52 51 51 52 50 51 53 54 56 56 53 55 57 61 64 66 65 64 63 62 62 63 64 64 64 64
64 64 63 62 61 61 60 60 60 60 60 60 55 57 55 54 53 51 50 49 50 53 53 52 53 52 50 50 53 54 57 58 58 59 59 58 57 57 58 59 61 62 63
63 64 64 62 61 60 60 59 59 61 61 61 58 56 55 53 53 51 53 52 50 48 50 50 52 51 51 50 50 52 55 56 58 57 56 54 54 57 57 57 58 58 57
61 62 62 62 62 61 60 60 59 59 60 60 59 58 57 54 52 51 49 52 49 48 45 45 47 46 48 47 50 52 54 55 54 54 55 56 57 57 57 58 59 58 57
57 59 60 60 60 60 60 60 61 60 58 59 59 59 58 57 56 54 53 51 47 45 44 43 43 43 46 46 48 50 51 53 54 55 56 57 56 57 57 56 56 57 57
57 56 57 58 59 59 59 59 60 59 58 57 56 56 57 54 54 53 52 50 43 42 42 44 41 42 43 45 47 51 50 52 52 52 53 55 54 53 53 54 55 55 55
54 55 56 56 56 56 56 57 54 54 52 51 49 49 48 46 47 48 48 49 48 43 41 40 39 41 42 43 46 44 43 47 49 50 50 51 51 51 51 51 52 53 53
49 49 49 50 51 51 51 50 49 51 47 46 46 46 43 44 44 44 45 45 45 44 41 39 38 38 40 42 43 41 42 44 46 48 49 49 50 50 50 51 52 52 52
44 45 45 45 44 45 46 46 46 47 46 44 44 43 42 43 40 42 42 41 41 41 38 35 36 37 37 38 40 41 41 40 41 44 47 47 48 50 50 50 51 51 51
41 41 42 41 40 40 40 43 42 45 43 42 42 42 41 42 39 39 38 38 37 38 39 35 35 35 36 37 38 38 40 43 42 44 47 48 49 49 49 49 49 49 49
39 39 39 38 38 38 37 37 37 40 40 40 40 39 39 39 36 36 35 32 31 37 36 36 33 35 36 37 36 37 38 37 40 43 45 46 46 46 47 47 47 47 47
37 36 37 37 37 36 36 36 36 36 36 35 35 35 34 34 33 32 32 32 33 33 32 31 33 33 35 36 35 32 31 30 31 37 39 41 42 43 43 44 45 45 44
37 37 36 37 36 37 37 37 37 37 36 36 36 37 37 40 42 38 34 32 32 31 33 33 33 33 32 30 29 28 28 27 27 27 28 30 30 30 31 37 38 41 42
39 37 37 39 40 41 42 40 38 36 35 34 33 34 35 35 38 42 41 41 38 30 27 26 29 26 26 26 26 26 24 20 20 28 27 27 29 28 30 30 39 42 43
37 37 38 39 39 40 42 40 37 30 32 32 27 25 30 34 33 31 37 38 39 41 37 29 26 25 25 26 23 19 24 18 21 27 26 24 27 27 29 33 38 40 41
35 35 34 34 35 39 41 39 36 27 26 25 24 25 27 28 31 31 30 29 29 30 32 33 29 28 28 28 27 24 24 25 26 27 27 18 25 26 28 29 36 39 42
33 33 33 31 30 32 40 38 32 26 28 27 29 28 29 29 39 38 30 28 27 29 36 39 38 39 39 40 37 31 24 20 21 25 26 24 24 24 25 25 29 37 40
32 30 28 28 36 30 40 39 33 30 27 29 28 30 38 33 38 38 28 26 25 26 26 28 28 29 30 31 36 29 23 12 14 16 25 22 22 23 19 24 26 28 29

GFSMA_sfc_temp_084.txt.gz
Temp
60 60 61 61 62 62 61 61 61 61 60 59 59 59 59 59 59 59 60 64 68 72 74 73 72 71 71 70 69 69 68 68 68 68 68 68 67 68 68 68 68 68 68
60 60 60 60 60 61 61 60 60 60 60 58 59 59 59 59 59 59 59 61 66 69 72 73 73 72 71 71 70 69 68 68 67 67 67 67 66 66 67 67 67 67 67
61 61 60 60 60 60 61 60 59 59 58 59 58 59 59 58 58 58 58 59 62 65 69 73 73 73 72 71 71 70 68 68 67 67 66 66 65 65 66 66 66 66 66
63 61 60 60 60 60 60 59 59 58 57 57 57 58 58 58 58 57 57 57 59 61 65 69 71 73 72 72 72 71 69 68 67 66 66 65 65 65 65 65 65 66 66
64 62 61 61 60 59 59 59 58 58 57 57 57 57 57 57 57 59 57 57 57 59 59 63 66 68 70 72 72 72 71 69 67 66 66 65 65 65 65 65 65 65 66
65 63 61 61 60 58 57 57 58 57 57 57 59 58 56 56 55 55 56 58 56 57 58 58 58 60 65 69 71 72 72 70 68 67 66 66 65 65 65 65 65 65 65
65 64 62 61 60 59 60 58 57 57 56 55 55 54 54 55 55 54 54 54 55 56 56 57 56 56 58 66 68 70 71 71 69 67 66 66 65 65 65 65 65 65 65
63 63 63 61 60 60 59 58 58 56 56 55 55 54 55 59 54 54 52 54 53 54 55 55 55 55 55 56 59 66 68 68 66 65 64 63 64 65 64 64 65 65 65
63 62 62 62 60 61 60 59 59 58 57 55 55 58 52 52 52 56 55 51 51 50 51 53 56 57 56 56 59 59 61 62 63 63 62 60 59 60 60 58 59 60 62
63 63 63 61 61 60 60 60 59 59 59 59 55 57 56 56 53 52 51 49 49 52 53 50 51 53 52 53 55 56 58 60 61 62 59 59 58 57 58 58 59 59 58
63 63 63 61 60 59 59 59 58 58 58 58 56 54 53 53 53 52 53 54 52 48 47 47 49 51 51 50 51 54 58 59 61 61 61 59 57 58 59 59 59 60 59
61 61 62 62 61 60 60 59 59 58 58 58 59 58 57 55 52 51 50 51 51 48 47 44 44 43 46 49 51 53 56 58 60 60 60 58 58 59 60 60 60 61 59
57 58 59 60 60 60 60 60 59 58 58 58 58 58 57 57 56 54 53 52 49 47 44 43 43 44 47 45 48 51 54 56 58 58 59 60 59 58 57 57 57 57 58
57 58 56 58 58 59 59 59 58 59 58 56 55 55 55 52 53 53 52 50 46 44 40 43 42 42 44 45 47 51 49 55 55 56 55 54 55 53 53 53 54 53 53
55 55 55 55 56 57 58 57 55 53 52 51 49 49 48 47 46 47 49 49 48 44 43 40 40 41 42 44 46 45 45 51 51 51 52 52 52 52 52 51 51 52 52
47 50 51 51 52 52 52 52 50 49 46 47 47 46 44 43 43 44 44 46 46 45 42 39 38 39 41 42 44 43 43 45 46 49 50 50 50 50 50 50 51 52 52
43 43 44 45 47 48 49 48 47 48 46 45 45 44 43 44 42 41 40 39 39 39 39 35 37 37 38 39 40 41 41 41 41 45 47 48 48 49 50 51 51 51 51
40 40 41 41 41 40 41 42 42 43 43 43 43 42 41 43 40 39 39 38 35 38 39 35 35 35 36 38 38 38 41 43 41 44 47 48 49 49 49 49 49 49 49
38 38 38 38 37 38 37 37 38 41 41 41 41 40 40 39 37 37 36 35 34 35 33 32 32 35 35 36 35 37 38 38 40 43 45 45 46 46 46 47 47 47 47
36 36 36 36 36 36 36 36 37 37 36 36 36 35 34 34 32 31 31 31 32 31 31 30 30 33 34 36 35 34 33 32 31 36 37 40 43 42 43 44 45 45 44
36 36 36 36 36 37 39 38 38 37 37 36 37 38 38 40 41 38 33 31 31 30 30 30 29 30 31 31 31 27 27 27 27 27 28 29 30 30 31 36 38 40 42
37 37 37 38 40 41 41 41 39 36 36 35 34 34 35 36 40 43 42 42 36 30 25 23 20 24 25 25 26 25 23 20 20 27 26 27 28 28 30 30 39 42 42
37 37 38 39 39 40 42 39 38 33 33 30 27 27 31 34 32 30 37 38 39 41 37 29 26 25 25 26 23 19 23 18 21 26 26 24 27 27 29 33 38 40 41
35 35 34 35 36 40 41 39 36 28 26 25 25 25 27 28 31 30 29 29 29 30 32 32 28 27 27 27 27 24 24 25 26 27 26 18 25 26 28 28 36 39 42
33 33 34 33 32 34 40 38 32 27 28 27 29 28 29 29 39 37 29 28 27 28 36 39 38 39 38 39 35 31 29 20 20 25 26 24 23 23 25 26 29 37 41
33 33 29 30 37 32 40 39 33 30 27 28 29 29 38 33 39 38 28 26 24 25 25 27 27 29 30 32 35 28 22 12 14 16 24 23 21 22 18 24 26 28 29

GFSMA_sfc_temp_087.txt.gz
Temp
72 72 73 72 72 72 73 72 73 73 72 72 71 71 71 72 73 74 74 64 67 71 74 73 73 72 71 70 70 69 68 68 68 68 68 68 68 68 68 68 68 69 69
72 71 71 71 71 71 72 72 72 72 72 71 71 71 71 72 72 72 74 73 66 69 72 74 74 73 72 71 70 69 68 68 68 67 67 67 67 67 67 67 67 67 68
71 71 71 70 71 71 71 71 70 70 70 70 70 71 72 72 71 72 72 72 72 65 68 73 74 74 73 72 72 70 69 68 67 67 67 66 66 66 66 66 66 66 67
71 71 70 71 72 71 70 70 70 69 69 69 70 71 72 71 72 72 71 72 71 72 69 68 71 73 73 73 73 72 70 68 68 67 66 66 66 66 66 66 66 66 66
71 71 71 72 71 70 69 69 68 68 68 69 68 70 71 71 71 70 71 70 70 69 71 67 65 67 69 72 73 73 72 69 68 67 67 66 66 66 66 66 66 66 66
72 70 70 71 70 68 67 67 67 67 68 69 67 68 70 70 70 69 70 70 70 69 70 69 71 70 65 68 71 72 72 70 69 67 67 66 66 65 66 66 66 66 66
71 70 70 69 68 68 68 68 67 67 67 66 66 68 69 70 69 69 69 69 68 68 68 69 69 70 70 65 68 71 72 72 70 68 67 66 62 63 64 65 65 65 66
70 69 69 68 68 67 67 67 66 66 66 65 67 64 63 68 69 67 68 67 67 67 66 66 67 68 68 64 64 66 69 71 69 66 66 63 62 63 63 60 61 62 62
67 68 68 68 67 67 66 67 65 65 64 62 64 63 55 56 61 66 64 64 64 65 64 64 65 63 65 64 61 63 63 67 67 66 64 63 62 61 61 60 60 61 61
67 67 67 67 67 66 66 65 65 65 65 63 60 60 63 62 56 58 60 60 57 62 62 62 62 62 61 60 59 58 60 63 65 65 66 63 62 63 62 61 61 61 61
68 67 67 66 66 65 66 65 64 64 64 64 63 58 58 58 58 54 52 56 59 55 55 56 55 57 57 59 58 56 59 60 64 65 65 63 63 62 62 62 61 61 61
66 66 66 67 66 65 65 65 65 64 64 63 64 61 60 58 54 54 52 54 55 55 53 51 52 53 52 52 54 54 56 59 62 64 65 65 61 60 61 61 60 59 59
63 63 63 65 65 65 65 65 64 63 63 62 63 63 62 62 60 58 56 54 53 51 49 46 48 51 51 50 52 52 53 57 59 61 62 61 59 56 57 57 58 57 56
60 61 61 62 63 64 64 64 64 63 62 60 59 57 56 54 55 56 56 53 50 49 48 46 48 49 47 49 50 51 54 55 56 58 56 56 55 54 55 55 55 54 54
57 57 58 59 58 59 61 60 58 55 55 54 54 53 52 50 50 51 53 55 53 48 50 44 49 46 46 46 47 48 50 52 52 52 53 53 52 52 53 52 52 53 53
52 53 54 54 53 53 54 54 52 52 51 50 50 51 49 48 49 49 49 49 50 50 45 43 43 43 44 44 45 44 45 46 48 50 50 50 51 50 50 51 51 52 53
49 49 50 51 51 51 51 53 52 52 50 49 50 48 45 46 45 45 45 47 46 46 44 38 39 41 41 42 42 44 44 45 45 46 48 49 49 49 50 50 51 51 51
46 46 47 46 46 47 49 50 49 49 49 48 47 46 44 45 43 44 44 42 42 43 45 39 38 38 39 40 40 41 43 45 46 45 47 48 49 49 49 49 49 49 49
43 44 44 43 43 43 44 45 46 46 46 46 45 44 43 43 40 40 40 39 39 41 42 42 37 40 40 41 40 41 42 41 44 43 44 44 45 46 46 46 47 48 47
42 42 42 41 41 41 41 42 43 42 41 40 40 40 40 40 39 38 38 39 40 41 40 40 39 38 39 40 39 39 40 41 41 42 41 41 43 43 43 44 45 45 45
41 41 41 40 40 41 41 41 41 40 40 39 40 40 40 40 41 40 39 38 39 39 40 38 36 38 37 39 39 38 39 39 40 39 40 42 42 43 43 41 41 41 43
41 41 41 42 41 42 43 42 41 39 38 38 36 37 38 38 43 44 43 42 41 39 35 36 34 36 36 37 37 37 36 36 36 38 38 40 39 41 42 43 40 42 43
40 40 40 41 40 41 42 42 40 35 34 33 33 33 35 37 37 38 40 40 41 41 39 38 36 36 35 37 35 32 34 33 35 38 36 37 39 39 42 41 39 40 41
37 37 35 36 38 41 41 40 38 33 33 33 33 34 35 36 37 36 37 35 36 38 38 38 38 37 38 37 37 35 35 35 36 37 36 32 37 37 40 40 36 40 41
34 34 36 36 37 39 40 38 35 34 33 33 34 35 36 37 39 37 35 33 34 35 38 39 39 39 38 39 37 36 34 33 33 34 36 33 35 34 36 37 40 39 40
33 34 33 35 38 38 40 39 36 36 34 34 34 36 38 38 39 37 35 34 32 33 34 34 35 35 35 37 35 36 34 30 30 31 34 31 32 32 31 36 37 39 39

GFSMA_sfc_temp_090.txt.gz
Temp
82 83 83 83 82 82 82 81 81 81 80 80 81 80 80 80 81 82 82 67 68 71 73 74 73 72 71 70 70 69 69 68 68 68 68 68 68 68 68 68 69 69 69
82 81 81 80 81 81 82 81 81 80 80 80 80 80 80 80 80 80 81 80 67 68 71 74 74 73 72 72 71 69 69 68 68 68 67 67 67 67 67 67 67 67 68
80 79 80 80 80 81 81 80 79 79 79 80 79 80 80 81 80 80 80 81 79 65 68 72 74 74 73 73 72 70 69 69 68 67 67 66 66 66 66 66 66 67 67
80 79 79 79 81 80 79 79 79 78 78 78 78 79 79 80 80 81 80 80 79 80 70 69 71 72 73 73 73 72 70 69 68 67 67 66 66 66 66 66 66 66 66
80 80 80 80 80 79 78 78 78 77 76 76 76 78 78 79 79 79 79 80 79 77 79 70 66 67 69 72 73 73 72 70 68 68 67 67 66 66 66 66 66 66 66
81 79 80 80 80 78 77 76 75 76 75 76 75 75 78 78 79 79 80 80 79 77 77 77 77 74 65 68 71 73 73 71 69 68 67 67 67 66 66 66 66 66 66
81 80 80 79 79 77 77 77 75 73 74 75 73 74 75 78 78 79 80 79 78 76 76 76 76 77 76 66 68 70 72 72 70 68 68 67 67 65 66 66 66 66 65
79 79 78 77 78 76 75 75 73 72 73 75 71 71 67 74 77 78 78 77 76 76 75 74 74 74 74 74 70 66 67 70 71 68 67 67 65 64 65 66 63 64 64
74 73 75 76 75 74 73 74 73 70 70 71 71 69 61 62 68 73 72 74 73 73 70 69 71 70 70 70 66 63 63 65 69 69 68 67 65 64 64 63 63 63 63
73 73 74 74 74 73 72 72 72 71 70 69 68 69 71 68 61 57 66 70 68 67 64 68 68 68 67 67 62 59 60 62 66 69 68 66 65 65 64 64 63 63 63
74 72 72 72 72 72 72 72 71 71 72 69 69 67 64 62 61 57 55 64 65 63 62 63 61 63 63 64 64 59 58 61 64 66 67 68 65 65 65 63 62 63 63
74 73 72 72 71 71 71 72 72 71 70 69 69 68 65 64 62 59 56 58 59 61 60 61 60 60 60 59 57 54 55 58 61 64 66 66 64 63 61 61 61 60 60
69 70 70 69 68 68 69 70 70 69 68 67 67 66 67 67 66 65 60 60 58 59 57 55 57 58 57 57 56 52 53 55 58 61 63 61 59 58 59 59 59 58 57
68 67 67 67 68 67 68 68 67 66 66 65 65 64 63 58 58 59 58 57 54 56 57 57 54 54 52 51 52 52 56 54 56 57 58 57 55 55 55 55 55 55 55
63 64 64 65 65 65 64 64 63 61 61 58 57 56 54 54 55 55 54 55 55 55 55 52 54 51 48 49 48 51 50 51 53 53 53 53 53 53 52 52 53 53 54
59 60 61 61 61 61 60 60 56 55 54 53 53 53 53 53 53 53 53 54 54 53 49 49 46 47 47 47 47 46 46 47 49 50 51 51 51 51 51 51 52 52 53
58 58 57 59 58 58 56 55 54 54 52 51 55 55 53 51 49 49 49 52 53 53 49 41 42 44 46 48 49 50 48 48 49 48 49 49 49 50 50 50 51 51 51
55 55 56 56 55 55 55 55 54 55 55 55 53 52 49 49 48 50 52 50 50 50 48 42 41 43 44 44 46 45 46 49 50 46 47 48 49 49 49 49 49 49 49
54 53 53 53 52 52 53 55 55 54 54 53 52 51 50 49 46 45 47 45 46 46 48 46 41 44 45 47 47 48 48 49 49 45 45 45 46 46 47 47 47 48 48
52 52 51 50 49 50 50 51 52 51 50 49 48 47 47 46 45 45 44 45 47 47 47 46 44 43 46 46 47 46 46 48 47 48 45 43 43 44 44 45 45 45 45
50 49 49 48 47 47 48 48 47 46 45 44 43 44 44 43 43 44 45 45 45 46 47 44 43 44 43 44 45 45 44 46 47 45 46 48 47 47 48 45 43 42 43
48 48 47 47 45 45 43 44 46 45 44 42 41 42 43 44 44 44 43 43 45 45 42 43 41 43 43 44 44 43 42 41 41 44 42 44 46 46 47 47 42 42 43
46 45 44 44 44 44 44 44 43 40 37 36 36 37 40 41 43 44 43 43 42 42 43 45 43 44 42 43 40 36 39 38 40 43 40 41 45 44 47 46 42 41 42
41 40 38 39 40 42 43 42 40 38 39 39 40 41 41 41 41 41 42 40 41 42 42 43 44 42 42 42 41 38 40 40 41 42 41 36 44 42 45 45 38 40 41
36 36 38 39 40 40 41 40 40 40 38 38 40 42 42 42 39 39 39 37 40 39 40 40 40 39 39 39 40 41 37 37 37 39 41 37 40 38 41 42 44 39 40
35 36 36 39 41 40 40 39 41 40 39 39 40 40 40 42 40 38 40 40 37 39 38 38 39 38 39 38 37 40 39 32 34 34 38 33 34 35 33 41 41 42 43

GFSMA_sfc_temp_093.txt.gz
Temp
83 84 84 83 83 83 81 81 82 82 81 82 81 81 81 81 82 81 81 68 69 71 73 74 73 72 72 71 70 69 69 69 69 68 68 68 68 68 69 69 69 69 70
84 83 83 82 83 83 83 82 81 81 80 81 81 81 81 81 81 80 80 77 68 69 71 73 74 73 73 72 71 69 69 69 68 68 68 67 67 67 67 67 67 68 68
83 82 82 81 81 83 82 81 81 80 80 80 79 81 81 82 80 80 80 80 75 66 69 72 74 74 73 73 72 71 70 69 68 68 67 67 67 67 67 67 67 67 67
82 81 80 80 82 81 80 79 79 78 78 78 78 79 79 79 80 81 80 80 78 79 68 69 71 73 73 73 74 73 71 69 69 68 67 67 67 67 67 67 66 66 67
82 81 80 81 82 80 79 78 78 78 77 76 76 77 78 77 78 80 79 79 79 77 77 68 67 68 69 72 73 74 73 70 69 68 68 67 67 67 67 67 66 66 67
82 80 81 81 81 78 77 77 77 77 76 76 76 75 76 77 77 78 79 80 80 78 77 76 72 70 65 68 71 73 74 71 70 69 68 68 67 67 67 67 67 66 66
82 80 80 81 80 78 78 78 76 74 73 74 72 72 73 76 76 77 78 78 79 77 77 76 75 75 72 67 68 70 71 73 72 69 68 68 67 67 67 67 67 66 66
78 79 79 78 79 78 77 77 75 72 72 73 69 70 65 72 74 75 76 77 77 76 75 74 74 74 73 72 66 66 66 69 71 71 68 68 67 68 66 66 66 64 65
75 76 77 78 77 77 74 74 73 71 69 72 72 68 62 61 67 71 71 72 73 72 70 70 69 69 69 69 66 65 62 64 67 69 70 67 68 67 66 66 65 65 64
71 69 69 72 74 73 72 72 73 72 70 67 68 70 70 69 62 61 67 68 68 68 66 66 66 67 66 64 62 58 59 61 64 67 70 68 67 67 66 66 65 65 63
70 68 69 69 69 71 71 72 71 71 71 69 69 66 66 66 64 59 57 62 65 64 64 63 63 63 62 61 59 57 57 60 63 65 67 68 67 67 66 66 62 63 61
72 71 71 70 70 70 70 70 71 71 70 70 69 68 64 61 60 59 57 59 60 61 61 60 59 59 59 59 55 55 55 57 60 63 65 65 64 65 64 62 63 62 61
68 69 70 68 68 68 68 69 70 69 68 67 67 66 66 65 65 64 62 60 58 59 57 56 56 56 56 55 54 52 54 57 59 61 63 62 61 60 60 60 60 59 58
70 70 68 69 69 68 66 66 65 65 65 64 65 64 62 60 61 60 59 59 54 54 54 55 54 51 50 49 51 52 53 55 56 57 58 57 56 56 56 57 56 56 56
65 65 65 66 67 67 66 64 63 63 63 61 59 59 57 55 56 56 55 56 55 50 51 51 50 49 48 48 48 50 49 52 53 54 53 53 54 54 54 53 53 54 54
62 63 63 63 63 63 62 62 58 56 54 52 53 52 51 52 53 53 53 53 53 52 51 49 45 47 48 48 47 47 47 48 50 51 52 51 51 52 52 52 52 52 53
60 61 60 61 61 61 58 56 55 54 52 52 53 53 52 54 51 51 50 52 52 51 47 41 44 45 46 47 49 49 49 48 49 49 50 50 50 50 51 51 51 51 51
58 58 58 59 58 58 59 56 53 53 53 53 53 52 49 50 49 50 51 51 51 51 48 43 43 43 44 46 47 47 47 50 49 47 49 49 49 49 49 49 49 49 49
56 56 56 55 55 55 56 57 57 57 55 55 53 51 49 49 48 47 47 46 46 46 47 44 41 44 45 46 45 46 46 46 48 46 47 46 47 47 47 47 47 47 48
55 54 54 53 52 52 53 54 55 54 53 51 50 50 49 49 46 46 45 45 46 46 46 44 43 42 43 44 43 42 41 43 43 48 46 43 45 45 45 46 46 45 45
52 52 51 51 51 50 50 51 51 50 48 45 45 45 45 45 46 47 46 45 45 45 45 43 41 41 40 40 40 40 38 40 40 40 39 41 40 41 42 45 44 44 44
50 50 49 49 48 48 44 46 48 46 46 44 43 43 43 44 44 45 44 44 45 43 40 39 38 38 39 39 39 37 36 34 33 39 36 37 39 38 41 40 43 43 43
48 46 45 46 45 45 45 45 45 40 38 37 36 38 41 43 44 42 44 43 43 43 44 41 39 39 37 39 34 33 34 33 33 37 35 34 38 37 40 44 43 42 42
43 42 39 40 41 43 44 43 41 39 40 40 40 41 40 41 41 41 40 38 38 39 40 43 40 39 38 38 37 35 35 35 36 37 36 30 37 35 38 38 41 40 42
37 37 38 39 40 41 43 42 40 40 38 38 40 42 41 40 40 42 38 36 37 36 41 41 40 41 41 41 40 36 33 32 31 33 35 31 33 31 34 35 36 40 41
36 37 36 39 41 40 41 41 41 40 39 38 39 39 42 42 40 40 37 37 34 35 35 35 34 36 39 36 39 36 33 28 30 29 32 29 31 28 26 33 34 35 35

GFSMA_sfc_temp_096.txt.gz
Temp
70 71 72 70 69 70 70 68 69 71 71 71 71 71 70 69 70 69 65 66 70 72 73 74 73 72 71 71 70 70 69 69 69 69 68 68 68 69 69 69 69 69 70
72 72 71 72 71 73 71 70 70 70 69 70 70 71 70 69 70 70 67 65 68 70 72 74 74 73 73 72 71 70 69 69 69 68 68 68 68 68 68 68 68 68 69
72 72 71 70 70 71 72 71 70 69 68 70 68 69 69 69 69 70 70 68 66 66 70 73 74 74 74 73 73 71 70 69 69 68 68 67 67 67 67 67 67 67 68
73 71 69 69 71 70 70 68 68 67 66 66 66 67 68 69 69 69 70 70 69 69 66 70 72 73 73 73 74 73 71 70 69 68 68 67 67 67 67 67 67 67 67
74 71 70 70 71 69 68 68 67 66 65 65 67 66 66 66 68 72 69 70 69 69 66 66 67 68 69 72 73 73 73 71 69 69 68 68 67 67 67 67 67 67 67
74 72 71 71 70 68 67 66 66 66 65 65 70 68 65 66 67 67 68 71 70 69 68 67 63 63 65 69 71 73 74 71 70 69 69 68 68 68 68 67 67 67 67
75 73 71 71 71 69 68 68 67 65 63 64 62 62 63 66 66 67 67 68 69 69 68 66 64 64 63 66 68 70 71 71 72 70 69 69 68 68 68 67 67 67 66
74 73 71 70 71 69 69 68 67 64 65 65 61 60 58 62 64 67 66 67 65 65 65 65 63 63 63 62 62 65 65 67 69 70 70 69 68 68 67 67 67 66 65
69 70 70 67 68 68 67 67 67 65 62 63 64 61 56 55 60 62 63 64 63 60 60 61 62 62 61 61 60 58 60 62 65 68 69 69 69 68 68 67 67 66 65
67 67 67 67 66 66 65 64 65 63 63 61 62 64 62 61 56 55 59 60 60 60 58 57 57 58 57 56 56 56 58 61 65 67 69 70 68 68 68 67 67 66 65
67 66 66 66 66 66 66 66 64 64 64 62 62 60 60 59 59 56 54 55 56 55 55 55 55 53 55 53 50 53 57 60 63 65 67 68 67 68 68 67 66 63 63
66 66 66 65 65 65 65 65 65 65 63 63 63 63 61 59 57 56 55 56 54 53 52 51 52 50 50 49 53 54 57 58 60 63 65 66 66 66 67 63 63 64 63
64 65 66 64 64 65 65 66 65 65 65 65 65 64 63 62 62 60 57 55 53 52 48 48 48 46 50 48 48 52 55 58 60 63 64 63 62 63 63 63 62 61 60
63 63 63 63 64 64 64 64 63 64 64 63 63 62 61 60 60 60 58 55 52 52 50 48 45 44 48 48 51 51 52 56 57 58 59 58 58 59 58 58 58 57 57
61 60 60 60 61 61 61 62 61 62 62 62 61 60 57 55 55 55 55 55 54 50 49 48 43 47 46 46 48 48 48 53 54 54 55 55 54 55 55 55 55 55 55
57 57 58 58 58 57 56 57 57 56 56 54 54 53 51 52 52 52 52 52 52 52 48 45 43 45 46 46 47 46 47 48 51 52 52 52 52 52 53 53 53 53 53
53 55 55 55 55 54 54 54 54 54 53 52 52 52 51 51 49 48 48 48 49 50 46 40 42 43 44 45 46 46 47 46 46 50 51 51 51 51 51 52 52 51 51
51 51 52 53 53 52 52 53 52 52 51 51 51 50 48 49 46 48 48 48 48 47 46 41 41 41 42 44 45 42 46 49 46 49 49 49 49 49 49 49 49 49 49
51 50 50 49 49 49 50 50 52 53 52 51 50 49 48 48 46 45 43 41 42 43 44 40 37 42 43 43 43 41 41 40 44 47 48 48 48 48 47 47 47 47 47
48 47 47 47 46 47 47 48 50 50 48 48 48 48 47 47 44 41 41 40 41 40 40 40 40 40 40 39 38 37 36 37 37 44 45 45 46 46 46 46 46 45 45
46 46 46 45 45 45 45 44 45 43 42 42 43 43 42 43 46 44 41 39 40 39 38 37 38 37 35 35 34 35 32 33 32 33 32 34 35 35 36 45 44 44 44
44 45 44 44 42 45 46 47 46 41 41 39 37 38 41 43 45 46 46 46 44 39 36 38 32 33 34 32 33 31 29 24 26 32 30 30 33 32 35 35 45 43 43
41 40 40 41 42 43 45 46 44 39 38 36 36 37 39 41 40 38 44 44 44 45 43 37 35 33 32 33 30 27 29 25 25 30 30 28 32 32 34 41 44 43 43
41 39 36 38 40 43 45 44 42 37 37 38 38 38 36 36 37 37 35 33 32 35 37 39 33 32 32 33 32 30 30 29 30 31 31 23 29 30 31 32 43 42 42
36 36 37 38 39 40 44 43 39 37 36 36 37 37 36 35 42 43 34 32 32 33 41 42 42 42 42 42 38 31 26 24 25 28 29 27 27 27 29 30 32 42 42
35 37 36 38 41 38 43 43 40 36 35 33 34 36 42 37 42 42 33 32 29 30 31 30 31 35 35 36 40 31 27 19 21 22 27 22 24 24 20 28 30 31 32

GFSMA_sfc_temp_099.txt.gz
Temp
67 68 66 66 66 66 66 65 65 66 66 68 68 68 67 66 66 65 63 66 70 73 74 74 73 72 71 71 70 70 69 69 69 69 68 68 69 69 69 69 69 69 70
68 66 68 67 66 67 67 66 66 66 67 66 67 68 68 67 67 65 64 64 68 70 73 74 74 73 72 72 71 70 69 69 69 68 68 68 68 68 68 68 68 68 69
68 67 68 66 66 68 68 66 66 66 65 66 66 66 66 65 66 67 66 64 65 66 70 74 74 74 73 73 72 71 70 69 69 68 68 68 67 67 67 68 68 68 68
70 68 67 67 68 67 67 66 65 64 64 63 64 65 64 65 65 66 67 66 65 66 66 70 72 73 73 73 74 73 71 70 69 68 68 68 67 67 67 67 67 67 67
71 69 67 67 68 66 66 66 64 63 62 62 63 63 63 64 66 69 66 67 66 65 64 66 67 68 69 72 73 74 73 71 70 69 69 68 68 68 67 67 67 67 67
72 69 68 68 67 65 65 64 64 63 63 63 67 66 63 64 64 64 66 68 67 67 65 65 62 63 65 69 71 73 73 72 70 69 69 69 68 68 68 68 67 67 67
71 70 68 68 67 66 66 66 65 64 62 62 62 61 63 64 64 64 65 65 66 69 65 63 61 61 62 66 68 69 69 70 71 70 69 69 69 68 68 68 67 67 67
71 70 69 68 68 67 66 66 65 62 63 62 60 58 56 60 61 63 63 64 62 65 62 61 60 59 58 58 59 62 64 66 67 69 69 69 69 69 69 67 68 67 66
67 68 68 68 67 68 66 66 65 64 61 61 61 60 54 54 56 60 61 62 62 59 57 58 58 60 56 54 55 56 60 63 66 68 69 70 69 68 69 68 68 68 66
66 67 66 66 65 66 65 64 65 64 62 60 61 62 60 59 57 57 59 59 59 56 54 54 54 55 53 52 54 56 58 61 65 67 68 69 69 69 69 69 68 68 66
67 66 65 65 65 65 65 64 64 63 63 62 61 60 59 59 60 57 55 56 56 52 52 51 50 50 51 50 50 53 57 60 63 65 66 68 68 68 69 69 68 66 65
65 66 65 64 64 64 64 64 64 64 64 64 62 61 59 58 57 56 55 55 55 53 52 52 50 47 47 48 52 54 56 58 60 63 66 66 67 67 68 67 66 64 63
62 64 65 64 63 64 65 64 63 63 63 62 62 62 63 61 60 59 57 55 53 49 47 46 45 45 49 47 49 52 55 59 62 64 65 65 64 64 64 65 64 63 62
61 62 62 62 63 63 64 63 62 62 62 62 62 62 61 60 60 59 58 55 52 50 49 47 43 45 48 48 50 51 52 55 57 59 60 60 60 59 59 59 59 59 58
60 58 59 59 58 59 59 59 59 59 60 60 60 60 59 58 57 57 57 57 55 49 49 45 43 46 46 47 48 48 48 53 54 55 55 55 55 56 56 56 56 56 56
56 56 56 56 55 55 55 55 55 55 56 55 55 57 54 53 53 53 52 53 53 53 49 46 43 44 46 45 48 46 47 49 52 53 53 52 53 53 53 54 54 54 54
53 53 53 54 53 52 53 52 52 53 54 53 53 53 52 52 50 49 50 50 50 51 48 40 42 44 44 44 45 46 47 46 47 51 52 52 51 52 52 52 52 52 52
50 51 51 51 50 50 50 51 50 50 52 51 51 50 49 49 48 48 49 48 46 48 46 41 41 41 42 44 45 43 46 48 45 49 51 50 50 50 50 50 50 50 50
49 50 49 47 47 47 47 48 49 52 50 51 51 49 48 48 46 46 46 45 45 45 45 42 39 42 42 43 43 43 43 41 44 48 48 48 48 48 48 48 48 48 47
47 46 45 45 44 45 45 45 47 48 49 48 48 48 47 47 46 45 43 43 41 40 41 41 39 39 41 42 41 37 35 37 36 43 44 44 46 46 47 47 46 45 45
45 44 43 44 43 43 45 43 44 43 44 43 43 44 44 45 46 45 42 39 39 38 37 39 38 38 37 35 34 35 33 32 32 32 32 33 33 33 35 45 44 44 44
42 42 41 42 41 44 46 47 45 40 40 39 38 39 42 44 46 48 47 46 42 37 35 33 34 30 32 32 32 32 30 25 26 31 30 30 32 31 33 33 45 44 44
39 38 38 39 39 40 46 46 45 41 39 37 36 37 38 41 41 41 45 45 46 46 43 37 35 33 31 32 31 28 29 26 26 30 30 28 30 30 31 38 45 43 43
38 37 36 36 37 41 45 45 42 38 38 38 38 39 38 36 36 36 34 32 33 35 36 38 34 33 33 32 33 31 30 29 29 30 30 23 27 29 30 31 43 43 42
37 37 38 35 35 39 44 43 40 37 36 36 38 38 38 35 42 42 33 32 31 32 42 42 42 42 42 41 36 31 26 26 25 27 28 26 25 25 27 28 31 42 42
36 36 35 36 40 39 44 43 40 37 35 35 36 37 41 38 44 43 32 31 29 29 31 32 32 35 35 38 39 31 28 21 22 22 27 23 23 23 19 27 29 29 30

GFSMA_sfc_temp_102.txt.gz
Temp
66 65 64 64 64 64 64 63 63 64 63 63 64 64 65 63 63 63 63 66 70 73 74 73 73 72 72 71 70 70 70 69 69 69 69 69 69 69 69 69 69 70 70
67 66 65 65 64 64 65 64 64 64 64 64 65 65 65 64 63 63 62 63 67 70 73 74 74 73 72 72 71 70 69 69 69 69 68 68 68 68 68 68 68 69 69
66 66 66 64 65 65 65 64 64 63 62 64 63 64 64 63 64 64 63 62 64 66 70 74 74 74 73 73 72 71 70 69 69 68 68 68 68 68 68 68 68 68 68
67 64 65 65 65 65 64 63 63 62 62 62 61 62 63 63 63 63 64 63 63 65 66 70 72 73 74 73 73 73 71 70 69 69 68 68 68 67 68 67 67 67 68
68 66 65 65 66 64 64 64 62 62 61 60 61 62 61 62 63 66 64 64 64 64 63 65 66 68 70 72 73 73 72 71 69 69 69 68 68 68 68 67 67 67 67
69 66 66 66 65 64 63 63 63 61 61 61 65 64 61 62 62 62 64 66 65 65 64 63 62 62 65 69 71 72 73 72 70 69 69 69 68 68 68 68 67 67 67
70 68 66 66 65 64 64 64 63 63 61 61 61 60 60 62 62 61 62 62 64 66 66 62 60 59 60 65 67 67 68 69 70 70 69 69 69 69 69 69 68 68 67
71 68 67 66 66 65 65 65 64 62 62 62 60 57 56 59 60 61 61 62 61 63 63 61 58 57 56 56 58 61 63 66 68 69 69 68 68 69 69 69 68 68 67
68 68 66 66 66 66 64 63 63 62 61 60 60 59 54 54 56 58 57 58 59 58 59 58 56 56 57 52 54 55 60 63 66 68 69 69 69 69 69 69 69 68 67
66 66 66 66 65 65 64 64 64 63 61 60 60 61 60 59 57 56 59 58 58 57 55 54 51 53 51 51 54 56 58 60 64 66 68 69 69 69 69 69 69 69 68
66 65 65 65 64 64 64 64 63 63 62 61 61 59 59 59 59 56 55 54 55 54 52 53 53 51 50 50 50 53 57 59 62 65 66 68 68 69 70 70 69 69 67
64 64 64 64 64 63 64 64 63 63 63 62 62 62 60 58 57 56 55 55 55 52 52 52 50 49 47 48 52 54 57 59 61 63 66 66 67 67 68 69 70 68 65
61 63 64 64 63 64 64 63 63 63 62 62 62 62 62 62 60 58 57 55 53 50 48 47 47 47 49 47 49 52 56 59 62 64 65 65 64 65 65 66 65 64 63
60 61 62 61 61 61 62 62 61 62 62 61 62 62 61 61 60 58 58 55 52 50 48 46 44 45 46 48 50 51 52 56 58 60 61 59 59 60 60 61 61 61 60
57 57 58 58 59 59 59 58 58 57 57 58 60 59 59 58 58 58 58 57 57 50 49 44 43 46 47 48 49 49 49 54 55 55 56 56 55 56 57 57 57 57 57
54 55 55 55 55 56 55 55 54 54 53 54 55 56 57 56 56 55 55 55 54 54 49 46 44 44 46 46 48 47 47 49 53 53 53 53 53 54 54 55 55 55 55
53 52 54 53 52 52 51 51 52 52 52 52 53 54 54 53 52 51 51 51 52 52 49 41 42 44 44 44 45 46 46 46 48 52 52 52 52 52 53 53 53 53 53
48 51 49 49 49 49 49 49 50 49 49 52 52 50 51 50 50 49 49 49 49 49 47 41 40 41 42 44 44 43 46 47 46 50 51 51 51 51 51 51 50 50 50
47 47 47 47 47 47 46 47 47 49 50 51 51 49 50 49 47 47 47 47 46 46 46 42 39 42 42 43 42 43 43 42 45 48 49 49 49 49 49 49 49 48 48
44 44 44 44 44 43 43 43 45 46 48 49 49 48 48 47 47 46 45 44 44 43 44 41 40 40 41 42 41 39 37 38 35 41 43 44 46 47 47 47 47 46 46
42 42 42 42 41 42 44 42 42 43 42 42 43 44 45 46 47 46 44 42 42 41 40 40 39 39 37 37 38 37 34 31 31 32 32 33 33 33 35 44 44 45 45
41 41 40 41 40 43 47 47 45 40 40 39 38 41 42 45 46 48 47 46 43 37 35 37 36 36 36 36 35 34 29 26 28 32 31 31 31 31 32 33 44 45 44
39 38 37 38 38 39 46 47 46 41 40 39 37 37 39 42 42 42 46 45 46 46 43 38 36 36 33 33 31 29 30 27 28 30 30 28 30 30 31 37 45 44 43
36 36 37 36 36 39 45 46 44 39 39 39 39 39 39 38 38 38 36 34 33 34 37 39 37 34 34 33 34 33 32 30 29 30 29 24 28 29 29 30 43 43 43
35 37 38 37 34 36 44 45 41 38 37 36 38 39 39 38 42 41 33 31 31 33 42 42 41 42 41 41 37 32 29 29 26 28 29 27 26 26 27 28 30 42 42
37 37 35 34 37 36 43 44 41 37 35 35 36 37 41 39 43 43 33 30 31 31 32 33 33 35 37 39 40 33 30 26 24 23 28 24 23 23 19 26 28 28 29